User: anonymous   Login
Location: Cronhütte
(48.9135°N, 9.6869°E)
Time: 12:56:06
(UTC+00:00)
Language:

SAR-Lupe-1 - Orbit

View from above orbital plane
View from above orbital plane
View from above satellite
View from above satellite

Ground track
Ground track

The orbit data is extracted from the following two-line orbital elements,

1 29658U 06060A   24125.09812340 0.00001800  00000-0  65527-4 0    04
2 29658  98.1124  77.3729 0002037 153.7380 206.2568 15.28249650    02
Epoch (UTC): 04 May 2024 02:21:17
Eccentricity: 0.0002037
inclination: 98.1124°
perigee height: 479 km
apogee height: 482 km
right ascension of ascending node: 77.3729°
argument of perigee: 153.7380°
revolutions per day: 15.28249650
mean anomaly at epoch: 206.2568°
orbit number at epoch: 0

The dashed part of the orbit path shows where the satellite is in the earth's shadow,  

DLR